Погода в Редмонде

США     47°40′11″N   122°07′21″W
темп.,
°C
ветер,
м/с
пор.,
м/с
влажн.,
%
обл.,
%
осадки,
мм/ч
давл.,
гПа
погр.,
м
20 сентября, пн
пн2023:00+11юв269688 3.9 1023207
02:00+11ююв239695 0.0 1025114
05:00+11ююв1297100 0.1 102677
08:00+11юв139668 0.0 1027142
11:00+15юз236759 0.1 1028774
14:00+20сз21465 0.0 10271324
17:00+18ссз335157 0.0 1026901
20:00+11ссв22877 0.0 102730
21 сентября, вт
вт2123:00+9св11930 0.0 102710
02:00+8св11930 0.0 102611
05:00+8ссв11920 0.0 102413
08:00+10ссв11790 0.0 102345
11:00+19ссз22472 0.0 1021473
14:00+23ссз21382 0.0 1018683
17:00+22ссз32453 0.0 1017439
20:00+12ссв11811 0.0 101712
22 сентября, ср
ср2223:00+11всв11871 0.0 101710
02:00+11св11865 0.0 101810
05:00+10ссв1181100 0.0 101810
08:00+12ссв1176100 0.0 101941
11:00+17сз2358100 0.0 1020548
14:00+19сз4456100 0.0 1020944
17:00+14с137817 0.0 1021156
20:00+12ссв119414 0.0 102210
23 сентября, чт
чт2323:00+10ссв119631 0.0 102312
02:00+9св11975 0.0 102310
05:00+9всв009732 0.0 102410
08:00+10с009450 0.0 102438
11:00+17сз22645 0.0 1024585
14:00+22ссз2343100 0.0 10221047
17:00+20ссз3350100 0.0 1021553
20:00+12св1189100 0.0 102111
24 сентября, пт
пт2423:00+11ссв119490 0.0 102110
02:00+10ссв11940 0.0 102010
05:00+10ссв11921 0.0 101811
08:00+11св11800 0.0 101726
11:00+20ссз22425 0.0 1016424
14:00+25ссз22305 0.0 1014692
17:00+22ссз3343100 0.0 1013386
20:00+13ссв11751 0.0 101310